Вернуться в каталог

OPS 4682 DEB

АктивенPO
NORAD 39609·DEBRIS·🇺🇸 United States

Запущен Apr 3, 1965 с Vandenberg Space Force Base

Loading…

Ближайшие Пролёты (ближайшие 24 часа)

TLE

СвежийSource: Space-Track

Эпоха: Sep 12, 2026, 19:49 UTC

1 39609U 65027FS  26255.82599793  .00000703  00000-0  23675-2 0  9994
2 39609  90.2598  16.5438 0028940 179.0079 333.8895 12.98204785607676

Отслеживайте OPS 4682 DEB в реальном времени с AllMySat

Download on the App Store